Miscellaneous Local Product
Issued by NWS Hastings, NE

Home | Current Version | Previous Version | Text Only | Print | Product List | Glossary Off
Versions: 1 2 3 4 5 6 7 8 9 10 11 12 13 14 15 16 17 18 19 20 21 22 23 24 25 26 27 28 29 30 31 32 33 34 35 36 37 38 39 40 41 42 43 44 45 46 47 48 49 50

000
AXUS43 KGID 160202
MISGRI

GID CWA HOURLY WEATHER ROUNDUP
NATIONAL WEATHER SERVICE HASTINGS NE
900 PM CDT MON SEP 15 2014

NOTE: "FAIR" INDICATES FEW OR NO CLOUDS BELOW 12,000 FEET WITH NO
SIGNIFICANT WEATHER AND/OR OBSTRUCTIONS TO VISIBILITY.

...SOUTH CENTRAL NEBRASKA...

CITY           SKY/WX    TMP DP  RH WIND       PRES   REMARKS
GRAND ISLAND   CLEAR     51  45  79 E3        30.26R
HASTINGS       CLEAR     54  44  69 E5        30.25S
KEARNEY        CLEAR     54  43  66 E5        30.26R
ORD            CLEAR     48  44  86 CALM      30.24R
YORK           CLEAR     50  46  87 E6        30.26R
AURORA         CLEAR     49  46  88 CALM      30.26R
LEXINGTON      CLEAR     54  45  72 SE5       30.25R
HOLDREGE       CLEAR     52  43  72 CALM      30.25R
HEBRON         CLEAR     52  45  79 CALM      30.25R

...NEBRASKA PANHANDLE...

CITY           SKY/WX    TMP DP  RH WIND       PRES   REMARKS
CHADRON        CLEAR     59  45  59 S6        30.14S
ALLIANCE       CLEAR     52  44  74 SE8       30.19S
SCOTTSBLUFF    CLEAR     58  47  66 SE10      30.17S
SIDNEY         CLEAR     56  45  66 S10       30.23F

...WESTERN AND NORTH CENTRAL NEBRASKA...

CITY           SKY/WX    TMP DP  RH WIND       PRES   REMARKS
VALENTINE      CLEAR     54  40  59 SE8       30.21S
AINSWORTH      HAZE      48  41  76 SE6       30.23S VSB 1/4
ONEILL         CLEAR     52  44  74 SE3       30.25R
BROKEN BOW     CLEAR     46  43  89 CALM      30.24S
IMPERIAL       CLEAR     55  46  71 SE5       30.25R
NORTH PLATTE   CLEAR     49  44  83 E6        30.24R
MCCOOK         CLEAR     55  45  68 E6        30.25R

...EASTERN NEBRASKA...

CITY           SKY/WX    TMP DP  RH WIND       PRES   REMARKS
NORFOLK        CLEAR     48  43  82 SE5       30.26R
SO SIOUX CITY  CLEAR     48  45  89 CALM      30.25R
TEKAMAH        CLEAR     50  47  89 CALM      30.25R
ALBION         CLEAR     47  42  82 CALM      30.26R
OMAHA EPPLEY   CLEAR     53  48  83 CALM      30.26R
OFFUTT AFB     CLEAR     49  49  99 CALM      30.25R
MILLARD        CLEAR     53  48  84 CALM      30.25R
LINCOLN        CLEAR     51  44  77 N5        30.26R
NEBRASKA CITY  CLEAR     52  41  67 CALM      30.26R
BEATRICE       CLEAR     51  46  82 NE5       30.25R
FALLS CITY     CLEAR     54  48  80 NE6       30.24R

...NORTHERN KANSAS...

CITY           SKY/WX    TMP DP  RH WIND       PRES   REMARKS
GOODLAND       CLEAR     55  50  83 SE5       30.27R HAZE
HILL CITY      CLEAR     56  44  64 NE7       30.24S
NORTON         CLEAR     54  39  58 NE3       30.24R
PHILLIPSBURG   CLEAR     57  45  62 NE6       30.24S
SMITH CENTER   CLEAR     54  45  71 NE8       30.25R
BELOIT         CLEAR     55  46  71 NE7       30.23R
HAYS           CLEAR     57  48  72 NE8       30.23R
RUSSELL        CLEAR     58  50  75 NE6       30.22R
CONCORDIA      CLEAR     56  48  74 NE5       30.24R
SALINA         CLEAR     65  50  58 NE8       30.22R
TOPEKA         CLEAR     59  53  80 N6        30.22R



USA.gov is the U.S. government's official web portal to all federal, state and local government web resources and services.